Change the Weather History Date:

Thursday, November 7, 2013

  Actual Average (KFFO) Record (KFFO)
Temperature  
Mean Temperature 44 °F -  
Max Temperature 48 °F 53 °F 73 °F (1996)
Min Temperature 39 °F 35 °F 22 °F (2010)
Degree Days  
Heating Degree Days 22    
Moisture  
Dew Point 31 °F    
Average Humidity 65    
Maximum Humidity 89    
Minimum Humidity 39    
Precipitation  
Precipitation 0.07 in - - ()
Sea Level Pressure  
Sea Level Pressure 30.17 in    
Wind  
Wind Speed 10 mph (WNW)    
Max Wind Speed 15 mph    
Max Gust Speed 22 mph    
Visibility 10 miles    
Events Rain    
Averages and records for this station are not official NWS values.
T = Trace of Precipitation, MM = Missing Value Source: NWS Daily Summary

Daily Weather History Graph

Daily Weather History Graph

Search for Another Location

Airport or City:

Trip Planner

Search our weather history database for the weather conditions in past years. The results will help you decide how hot, cold, wet, or windy it might be!

Date:

Astronomy

Nov. 07, 2013 Rise Set
Actual Time 7:12 AM EST 5:28 PM EST
Civil Twilight 6:43 AM EST 5:56 PM EST
Nautical Twilight 6:11 AM EST 6:28 PM EST
Astronomical Twilight 5:40 AM EST 7:00 PM EST
Moon 11:19 AM EST (11/7) 9:39 PM EST (11/7)
Length of Visible Light 11h 12m
Length of Day
10h 16m
Waxing Crescent, 22% of the Moon is Illuminated
Nov 7
Waxing Crescent
Nov 10
First Quarter
Nov 17
Full
Nov 25
Last Quarter
Dec 2
New

Hourly Weather History & Observations

Time (EST) Temp. Windchill Dew Point Humidity Pressure Visibility Wind Dir Wind Speed Gust Speed Precip Events Conditions
12:12 AM 44.6 °F 39.2 °F 41.0 °F 87% 30.04 in 10.0 mi NW 10.4 mph - 0.01 in Rain Light Rain
12:53 AM 44.1 °F 38.1 °F 41.0 °F 89% 30.04 in 9.0 mi NW 11.5 mph - 0.03 in Rain Light Rain
1:53 AM 44.1 °F 39.0 °F 41.0 °F 89% 30.08 in 10.0 mi WNW 9.2 mph - 0.04 in Rain Light Rain
2:46 AM 44.6 °F 39.7 °F 39.2 °F 81% 30.08 in 10.0 mi NW 9.2 mph - 0.00 in   Overcast
2:53 AM 44.1 °F 37.7 °F 39.0 °F 82% 30.08 in 10.0 mi NW 12.7 mph - 0.00 in   Overcast
3:53 AM 43.0 °F 36.0 °F 37.9 °F 82% 30.08 in 10.0 mi NNW 13.8 mph - N/A   Overcast
4:10 AM 42.8 °F 37.5 °F 37.4 °F 81% 30.09 in 10.0 mi NW 9.2 mph - N/A   Overcast
4:53 AM 42.1 °F 38.4 °F 37.9 °F 85% 30.11 in 10.0 mi NW 5.8 mph - N/A   Overcast
5:53 AM 41.0 °F 37.1 °F 37.0 °F 86% 30.13 in 10.0 mi NW 5.8 mph - N/A   Mostly Cloudy
6:53 AM 39.9 °F 35.1 °F 35.1 °F 83% 30.16 in 10.0 mi WNW 6.9 mph - N/A   Scattered Clouds
7:53 AM 39.9 °F 32.5 °F 35.1 °F 83% 30.19 in 10.0 mi WNW 12.7 mph 20.7 mph N/A   Mostly Cloudy
8:43 AM 39.2 °F 32.0 °F 33.8 °F 81% 30.21 in 10.0 mi NNW 11.5 mph - N/A   Scattered Clouds
8:53 AM 39.9 °F 32.9 °F 33.1 °F 77% 30.22 in 10.0 mi NW 11.5 mph - N/A   Partly Cloudy
9:53 AM 41.0 °F 33.1 °F 28.9 °F 62% 30.24 in 10.0 mi NNW 15.0 mph - N/A   Clear
10:53 AM 43.0 °F 36.8 °F 28.9 °F 58% 30.25 in 10.0 mi NW 11.5 mph 17.3 mph N/A   Clear
11:53 AM 45.0 °F 39.3 °F 28.0 °F 52% 30.25 in 10.0 mi WNW 11.5 mph 18.4 mph N/A   Partly Cloudy
12:53 PM 46.9 °F - 27.0 °F 46% 30.22 in 10.0 mi NW 10.4 mph 19.6 mph N/A   Scattered Clouds
1:53 PM 46.0 °F 41.4 °F 25.0 °F 44% 30.22 in 10.0 mi NW 9.2 mph 20.7 mph N/A   Clear
2:53 PM 46.9 °F - 25.0 °F 42% 30.20 in 10.0 mi WNW 10.4 mph 17.3 mph N/A   Scattered Clouds
3:53 PM 48.0 °F - 24.1 °F 39% 30.20 in 10.0 mi West 11.5 mph 21.9 mph N/A   Mostly Cloudy
4:53 PM 46.0 °F 41.4 °F 23.0 °F 40% 30.20 in 10.0 mi WSW 9.2 mph - N/A   Clear
5:53 PM 44.1 °F 41.5 °F 23.0 °F 43% 30.21 in 10.0 mi WSW 4.6 mph - N/A   Clear
6:53 PM 42.1 °F 38.4 °F 24.1 °F 49% 30.22 in 10.0 mi WSW 5.8 mph - N/A   Partly Cloudy
7:53 PM 42.1 °F 37.7 °F 24.1 °F 49% 30.22 in 10.0 mi WSW 6.9 mph - N/A   Partly Cloudy
8:53 PM 43.0 °F 38.2 °F 25.0 °F 49% 30.21 in 10.0 mi SW 8.1 mph - N/A   Overcast
9:53 PM 42.1 °F 38.4 °F 25.0 °F 51% 30.21 in 10.0 mi WSW 5.8 mph - N/A   Overcast
10:53 PM 42.1 °F 37.1 °F 26.1 °F 53% 30.20 in 10.0 mi WSW 8.1 mph - N/A   Overcast
11:53 PM 41.0 °F 35.8 °F 27.0 °F 57% 30.20 in 10.0 mi WSW 8.1 mph - N/A   Partly Cloudy